Location: Unspecified
(0.0000°N, 0.0000°E)
Time: 08:31:46
(UTC+02:00)

Daily predictions for brighter satellites

Satellite Brightness Start Highest point End
(mag) Time Altitude Azimuth Time Altitude Azimuth Time Altitude Azimuth
BLOCK DM-SL R/B 3.8 19:17:41 10° W 19:22:28 88° S 20:10:44 10° E
BLOCK DM-SL R/B 3.8 19:17:41 10° W 19:22:29 88° S 20:10:45 10° E
BLOCK DM-SL R/B 3.8 19:17:41 10° W 19:22:29 88° S 20:10:44 10° E
ATLAS 2AS CENTAUR R/B 4.2 20:27:47 10° SE 20:31:13 14° ESE 20:34:45 10° E
SL-8 R/B 3.7 20:30:23 10° SSW 20:35:08 60° SE 20:39:52 10° NE
Cosmos 1980 4.1 20:33:01 10° N 20:38:22 45° ENE 20:43:43 10° SSE
Abrixas rocket 4.1 20:36:03 10° WNW 20:38:45 25° SW 20:41:28 10° S
MONITOR-E 4.5 20:35:58 10° SSE 20:38:49 42° E 20:41:39 10° N
SL-16 R/B 4.0 20:38:49 10° NE 20:40:55 12° ENE 20:42:58 10° E
H-2A R/B 3.2 20:37:13 10° SSE 20:40:57 42° E 20:44:37 10° N
Spelda 30 4.5 20:39:07 10° W 20:42:50 69° N 21:01:44 10° E
Landsat 4 3.7 20:39:39 10° NNE 20:43:24 65° ESE 20:47:12 10° S
Cosmos 1544 4.5 20:40:47 10° NE 20:43:28 20° E 20:45:23 14° SE
Cosmos 2237 Rocket 2.4 20:43:49 10° N 20:49:20 54° ENE 20:54:50 10° SSE
GPS 2-14 Rocket1 4.2 20:46:57 10° SSW 20:49:38 18° SSE 20:50:59 15° SE
SJ 16-02 4.5 20:50:16 10° W 20:51:27 11° WSW 20:52:38 10° WSW
CZ-4 R/B 3.3 20:48:02 10° SSW 20:51:37 30° WSW 20:55:09 10° NW
Thor Agena Rocket 4.1 20:48:18 10° NE 20:52:46 32° ESE 20:57:13 10° SSE
Cosmos 2263 Rocket 2.2 20:47:51 10° S 20:53:29 64° ESE 20:59:04 10° NNE
NOSS 0 Rocket 3.9 20:47:35 10° NNW 20:53:46 87° ENE 20:59:56 10° SSE
EO 1 Del DPAF 3.5 20:51:00 10° N 20:54:45 69° WNW 20:58:32 10° SSW
Iridium 90 4.4 20:53:05 10° SSW 20:55:16 49° W 20:57:37 10° NNW
Cosmos 972 Rocket 4.0 20:54:03 10° S 20:59:20 55° E 21:04:11 10° NNE
Cosmos 2219 Rocket 3.5 20:55:41 10° NW 21:00:54 40° WSW 21:06:11 10° S
SEDSat Delta rocket 3.7 20:57:47 10° WSW 21:03:51 79° NW 21:09:04 10° NE
Ariane H10+ 3.0 20:58:28 10° W 21:07:41 65° S 21:09:40 28° ESE
BLOCK DM-SL R/B 1.7 21:02:29 10° W 21:08:07 61° N 21:09:09 29° ENE
Envisat 3.8 21:09:32 24° ESE 21:11:27 32° ENE 21:15:55 10° NNE
SME Rocket 3.7 21:14:21 10° S 21:19:02 56° WSW 21:22:46 10° NNW
ISS -1.2 21:17:41 10° W 21:19:41 15° SW 21:21:42 10° SSW
ATLAS V CENTAUR R/B 4.1 21:19:26 10° SW 21:19:43 13° SSW 21:19:43 13° SSW
Cosmos 2333 Rocket 4.0 21:16:43 10° NW 21:21:37 29° WSW 21:26:32 10° SSW
SPOT 3 Rocket 3.5 21:20:11 15° SSE 21:24:33 90° ESE 21:29:44 10° NNW
IRAS Rocket 4.2 21:21:35 24° SSE 21:24:56 63° ENE 21:30:26 10° N
Cosmos 2058 Rocket 4.5 21:22:52 10° NNE 21:25:07 22° NE 21:25:07 22° NE
FengYun 1-2 T 4.3 21:23:58 11° S 21:29:28 77° WSW 21:35:01 10° NNW
CZ-3A R/B 3.4 20:59:57 10° WNW 21:31:37 75° SSW 21:33:53 37° SE
Lacrosse 5 3.0 21:28:18 10° SW 21:33:08 45° WNW 21:37:58 10° NNE
Cosmos 1726 Rocket 3.4 21:39:13 10° N 21:43:38 79° E 21:43:45 78° ESE
Cosmos 2228 3.5 21:39:49 10° N 21:43:11 45° NE 21:43:11 45° NE
Cosmos 468 4.4 21:42:17 34° S 21:44:36 69° ESE 21:49:52 10° NNE
Fermi 3.8 21:40:34 10° WNW 21:44:21 71° WSW 21:44:21 71° WSW
ARIANE 5 R/B 4.2 21:41:33 10° W 21:46:27 73° N 22:47:00 10° E
SJ-6B 3.6 21:48:49 41° N 21:48:49 41° N 21:51:25 10° N
Ariane H10+ 2.5 21:44:29 10° WSW 21:47:22 30° WSW 21:47:22 30° WSW
Meteor 2-11 Rocket 4.4 21:49:00 55° ESE 21:49:16 56° E 21:55:10 10° NNE
Ariane H10 4.1 21:10:32 10° W 21:52:34 60° N 21:55:31 32° ENE
Cosmos 1378 3.9 21:53:24 50° WNW 21:53:24 50° WNW 21:56:37 10° N
Cosmos 1627 Rocket 4.3 21:52:16 10° N 21:58:27 87° E 22:00:03 53° S
BLOCK DM-SL R/B 3.9 21:41:00 10° W 21:59:42 88° S 22:01:14 56° E
Longmarch 3A Rocket 3.8 21:06:54 10° WNW 21:59:49 87° NNE 22:02:09 52° ESE
BREEZE-M DEB (TANK) 4.2 22:02:08 10° NW 22:03:00 23° NW 22:03:00 23° NW
BLOCK DM-SL R/B 3.2 22:02:18 10° W 22:07:57 81° SSW 22:07:57 81° SSW
Ariane H10 4.3 21:00:56 10° W 22:14:17 76° S 22:17:13 55° ESE
DELTA 2 R/B (1) 4.2 22:10:54 10° NW 22:15:05 47° N 22:15:05 47° N
ATLAS 2AS CENTAUR R/B 3.2 22:14:47 10° SSW 22:21:43 63° WNW 22:29:19 10° NNE
SL-16 R/B 3.0 22:19:22 10° NNW 22:24:45 45° WSW 22:24:54 45° WSW
Resurs 01 Rocket 4.2 22:31:51 14° N 22:31:51 14° N 22:32:27 10° N
ARIANE 5 R/B 4.3 13:54:31 10° W 22:38:30 77° N 22:42:39 52° ENE
ARIANE 5 R/B 4.5 14:35:21 10° W 22:51:56 71° S 22:52:14 71° S
